ARIANE 1 DEB

Satellite information

Favourite Embed

Satellite Type and Status

DEBRISIN ORBIT

Key statistics

Satellite ARIANE 1 DEB at a glance.

Uptime

14319

Days in orbit

Revolutions

≈ 14.6

Per day

Orbit

SSO

Sun Synchronous Orbit

Inclination

98.0

Latest

Satellite identification and parameters

Extended collection of information and parameters for ARIANE 1 DEB.

Object identification

Identified? True

Debris? True

Object name: ARIANE 1 DEB

International designator: 1986-019AG

Object number (NORAD): 17153

Object ID (CCSDS): 17153

Country: FRANCE (FR)

Current information (Y/N): Y

RCS size: MEDIUM

Orbital parameters

Period: 98.334 minutes

Inclination: 97.9993 deg

SMA: 7057.144 km

Apoapsis: 690.242 km

Periapsis: 667.776 km

RAAN: 136.1539 deg

Eccentricy: 0.0015917

Argument of periapsis: 114.9768 deg

Mean anomaly: 245.309 deg

Mean motion: 14.6439859 rev/day

Mean motion (dot): 0.00003788 rev/day2

B* drag term: 0.00072387 1/REarth

Two-line elements (TLE)

Creation date: May 7, 2025, 3:14 a.m.

Reference frame: TEME

Reference center: EARTH

Epoch: May 6, 2025, 11:04 p.m. UTC

TLE line 0: 0 ARIANE 1 DEB

TLE line 1: 1 17153U 86019AG 25126.96131715 .00003788 00000-0 72387-3 0 9996

TLE line 2: 2 17153 97.9993 136.1539 0015917 114.9768 245.3090 14.64398590975768

Live tracking on map

Real-time ground track for satellite ARIANE 1 DEB.

In-orbit conjunctions

A list of the most updated potential collisions computed for object ARIANE 1 DEB.

Target Orbit TCA Probability of collision Miss distance Type
DELTA 1 DEB SSO 2024-11-12 17:18:38 0.005651423 255.0 (m) DEBRIS
CZ-6A DEB SSO 2024-11-12 01:14:35 0.0001528069 959.0 (m) DEBRIS

Associated space launch

SPOT 1 is a French Earth observation satellite. Viking is Sweden's first satellite.

ARIANE 1 DEB was lifted into orbit during the mission ‘Ariane 1 | SPOT 1 & Viking’, on board a Ariane 1 space rocket.

The launch took place on Feb. 22, 1986, 1:44 a.m. from Ariane Launch Area 1 (ELV).

For more information about the launch, click the button.

Launch to space Ariane 1 | SPOT 1 & Viking
Ariane 1 | SPOT 1 & Viking

Agency: N/A

Status: Launch Successful

Launch date: Feb. 22, 1986, 1:44 a.m. UTC

Rocket: Ariane 1

Launch pad: Ariane Launch Area 1 (ELV)

Location: Guiana Space Centre, French Guiana

...

Latest news about this satellite

There are no fresh news available about this satellite. Check back as we update our databases every day.


Newsletter sign-up

Weekly statistics, charts and insights to help you stay on top of the space industry.